Location: Monteux
(44.0348°N, 4.9972°E)
Time: 04:37:08
(UTC+00:00)

Cosmos 2341 Rocket - Pass Details

Date: 27 April 2021
Orbit: 969 x 1003 km, 82.9° (Epoch: 11 May)

Event Time Altitude Azimuth Distance (km) Brightness Sun altitude
Rises 22:14:59 0° 4° (N) 3,726 8.0 -28.9°
Reaches altitude 10° 22:18:26 10° 22° (NNE) 2,777 6.9 -29.1°
Maximum altitude 22:22:44 19° 65° (ENE) 2,212 5.9 -29.4°
Enters shadow 22:23:39 18° 76° (ENE) 2,240 5.8 -29.4°
